Location: Courçay
(47.2523°N, 0.8761°E)
Time: 07:38:15
(UTC+00:00)

PSLV R/B - Pass Details

Date: 18 November 2025
Orbit: 561 x 590 km, 98.0° (Epoch: 06 December)

Event Time Altitude Azimuth Distance (km) Brightness Sun altitude
Rises 17:50:31 0° 148° (SSE) 2,758 6.7 -15.6°
Reaches altitude 10° 17:52:43 10° 142° (SE) 1,862 5.8 -15.9°
Maximum altitude 17:56:32 43° 70° (ENE) 801 3.6 -16.6°
Drops below altitude 10° 18:00:21 10° 359° (N) 1,866 5.9 -17.2°
Sets 18:02:34 0° 353° (N) 2,765 6.9 -17.6°
